(112753) = 1998 HS44 = 2002 PC135

Discovered at Socorro on 2002-08-14 by LINEAR.

Orbit

Orbit type: Main Belt

Note: WebGL enabled browser required.

epoch2023-09-13.0
epoch JD2460200.5
perihelion date2023-03-24.19909
perihelion JD2460027.69909
argument of perihelion (°)212.95449
ascending node (°)59.19573
inclination (°)1.13265
eccentricity0.1963394
perihelion distance (AU)1.8515357
Tisserand w.r.t. Jupiter3.6
ΔV w.r.t. Earth (km/sec)8.4
semimajor axis (AU)2.3038777
mean anomaly (°)48.70356
mean daily motion (°/day)0.28184780
aphelion distance (AU)2.756
period (years)3.5
P-vector [x]0.03742821
P-vector [y]-0.91250890
P-vector [z]-0.40734093
Q-vector [x]0.99915507
Q-vector [y]0.04109831
Q-vector [z]-0.00026020
absolute magnitude17.02
phase slope0.15
uncertainty0
referenceMPEC 2024-A34
observations used555
oppositions15
arc length (days)9334
first opposition used1998
last opposition used2023
residual rms (arc-secs)0.79
perturbers coarse indicatorM-v
perturbers precise indicator003Ek
first observation date used1998-04-20.0
last observation date used2023-11-09.0
computer nameMPCLINUX
JD of orbit computation2456639.620068
perihelion JD uncertainty (days)6.2893E-05
argument of perihelion uncertainty (°)2.7058E-04
ascending node uncertainty (°)2.7007E-04
inclination uncertainty (°)6.6206E-06
eccentricity uncertainty 3.7538E-08
perihelion distance uncertainty (AU)8.8536E-08
Minimum Orbit Intersection Distances (in AU)
for orbit epoch: 2460200.5, reference: E2024-A34
Mercury1.38873
Venus1.12444
Earth0.83474
Mars0.37127
Jupiter2.34193
Saturn6.29799
Uranus15.9412
Neptune27.2257

Observations

545 total observations over interval: 1998 04 20.25176 – 2023 11 09.160726
These data are available for download (format description).

Date (UT) J2000 RA J2000 Dec Magn Location Ref
1998 04 20.25176 13 28 57.42 -08 02 01.3 18.7   704 – Lincoln Laboratory ETS, New Mexico MPS 1113
1998 04 20.29205 13 28 54.71 -08 01 47.4 18.8   704 – Lincoln Laboratory ETS, New Mexico MPS 1113
1998 04 20.31211 13 28 53.75 -08 01 42.7 18.8   704 – Lincoln Laboratory ETS, New Mexico MPS 1113
1998 04 20.33226 13 28 52.26 -08 01 37.8 19.3   704 – Lincoln Laboratory ETS, New Mexico MPS 1113
1998 04 21.19925 13 28 02.00 -07 57 16.6 19.1   704 – Lincoln Laboratory ETS, New Mexico MPS 1113
1998 04 21.23936 13 27 59.58 -07 57 03.3 19.1   704 – Lincoln Laboratory ETS, New Mexico MPS 1113
1998 04 21.25939 13 27 58.03 -07 56 56.0 18.8   704 – Lincoln Laboratory ETS, New Mexico MPS 1113
1998 04 21.27948 13 27 57.14 -07 56 52.5 18.8   704 – Lincoln Laboratory ETS, New Mexico MPS 1113
1998 04 22.26138 13 26 59.90 -07 52 01.2 19.3   704 – Lincoln Laboratory ETS, New Mexico MPS 1113
1998 04 22.28010 13 26 58.69 -07 51 54.2 19.0   704 – Lincoln Laboratory ETS, New Mexico MPS 1113
1998 04 22.29897 13 26 57.54 -07 51 47.3 18.5   704 – Lincoln Laboratory ETS, New Mexico MPS 1113
1998 04 22.31812 13 26 56.35 -07 51 42.5 18.9   704 – Lincoln Laboratory ETS, New Mexico MPS 1113
1999 10 29.28386 02 55 09.07 +16 07 19.0 21.1 V 691 – Steward Observatory, Kitt Peak-Spacewatch MPS 61440
1999 10 29.30535 02 55 07.60 +16 07 13.1 20.9 V 691 – Steward Observatory, Kitt Peak-Spacewatch MPS 61440
1999 10 29.32702 02 55 06.20 +16 07 08.7 21.1 V 691 – Steward Observatory, Kitt Peak-Spacewatch MPS 61440
1999 11 16.28240 02 36 09.05 +14 49 48.0 20.5 V 691 – Steward Observatory, Kitt Peak-Spacewatch MPS 61440
1999 11 16.31412 02 36 07.17 +14 49 39.6 20.7 V 691 – Steward Observatory, Kitt Peak-Spacewatch MPS 61440
1999 11 16.34107 02 36 05.49 +14 49 33.4 20.7 V 691 – Steward Observatory, Kitt Peak-Spacewatch MPS 61440
2002 08 08.45528 22 31 19.72 -11 43 09.0 18.6   644 – Palomar Mountain/NEAT MPS 61440
2002 08 08.46516 22 31 19.24 -11 43 11.9 18.7   644 – Palomar Mountain/NEAT MPS 61440
2002 08 08.47605 22 31 18.70 -11 43 14.8 18.7   644 – Palomar Mountain/NEAT MPS 61440
2002 08 14.30303 22 26 25.74 -12 13 22.7 18.4   704 – Lincoln Laboratory ETS, New Mexico MPS 60288
2002 08 14.31849 22 26 24.80 -12 13 27.3 19.0   704 – Lincoln Laboratory ETS, New Mexico MPS 60288
2002 08 14.33395 22 26 23.98 -12 13 31.6 19.0   704 – Lincoln Laboratory ETS, New Mexico MPS 60288
2002 08 14.34941 22 26 23.15 -12 13 36.5 18.7   704 – Lincoln Laboratory ETS, New Mexico MPS 60288
2002 08 14.36507 22 26 22.20 -12 13 41.4 19.0   704 – Lincoln Laboratory ETS, New Mexico MPS 60288
2002 08 17.54992 22 23 28.78 -12 30 40.9 19.4   608 – Haleakala-AMOS MPS 60288
2002 08 17.56040 22 23 28.16 -12 30 43.8 19.7   608 – Haleakala-AMOS MPS 60288
2002 08 17.57147 22 23 27.53 -12 30 46.9 19.3   608 – Haleakala-AMOS MPS 60288
2002 09 15.24717 21 59 25.21 -14 30 43.7 19.4   644 – Palomar Mountain/NEAT MPS 61440
2002 09 15.26861 21 59 24.43 -14 30 46.4 19.1   644 – Palomar Mountain/NEAT MPS 61440
2002 09 15.28963 21 59 23.64 -14 30 49.2 19.3   644 – Palomar Mountain/NEAT MPS 61440
2005 04 04.38892 13 49 07.47 -09 50 42.4 19.1   704 – Lincoln Laboratory ETS, New Mexico MPS 130685
2005 04 04.39933 13 49 06.97 -09 50 40.6 19.6   704 – Lincoln Laboratory ETS, New Mexico MPS 130685
2005 04 04.41052 13 49 06.38 -09 50 36.1 19.2   704 – Lincoln Laboratory ETS, New Mexico MPS 130685
2005 04 04.42116 13 49 05.92 -09 50 35.2 19.4   704 – Lincoln Laboratory ETS, New Mexico MPS 130685
2005 04 05.35079 13 48 19.52 -09 46 33.5 18.5 R 703 – Catalina Sky Survey MPS 130685
2005 04 05.35732 13 48 19.37 -09 46 34.6 18.7 R 703 – Catalina Sky Survey MPS 130685
2005 04 05.36385 13 48 18.79 -09 46 30.3 18.6 R 703 – Catalina Sky Survey MPS 130685
2005 04 05.37043 13 48 18.46 -09 46 29.8 19.2 R 703 – Catalina Sky Survey MPS 130685
2005 04 06.40507 13 47 25.24 -09 41 54.9 18.4 R G96 – Mt. Lemmon Survey MPS 130685
2005 04 06.41168 13 47 24.86 -09 41 53.3 17.7 R G96 – Mt. Lemmon Survey MPS 130685
2005 04 06.41831 13 47 24.55 -09 41 51.5 18.2 R G96 – Mt. Lemmon Survey MPS 130685
2005 04 06.42494 13 47 24.18 -09 41 49.8 18.5 R G96 – Mt. Lemmon Survey MPS 130685
2005 04 07.36943 13 46 34.81 -09 37 34.5 18.8 R G96 – Mt. Lemmon Survey MPS 130685
2005 04 07.37605 13 46 34.43 -09 37 32.8 16.9 R G96 – Mt. Lemmon Survey MPS 130685
2005 04 07.38270 13 46 34.08 -09 37 31.4 20.1 R G96 – Mt. Lemmon Survey MPS 130685
2005 04 07.38933 13 46 33.70 -09 37 29.0 19.6 R G96 – Mt. Lemmon Survey MPS 130685
2005 04 09.25986 13 44 53.31 -09 28 50.2 19.2 V 691 – Steward Observatory, Kitt Peak-Spacewatch MPS 131622
2005 04 09.27778 13 44 52.28 -09 28 45.0 19.3 V 691 – Steward Observatory, Kitt Peak-Spacewatch MPS 131622
2005 04 09.29580 13 44 51.23 -09 28 40.2 19.2 V 691 – Steward Observatory, Kitt Peak-Spacewatch MPS 131622
2005 04 11.29119 13 43 00.29 -09 19 10.2 18.5 R 699 – Lowell Observatory-LONEOS MPS 131622
2005 04 11.30740 13 42 59.37 -09 19 05.3   699 – Lowell Observatory-LONEOS MPS 131622
2005 04 11.32363 13 42 58.43 -09 19 00.6   699 – Lowell Observatory-LONEOS MPS 131622
2005 04 11.33986 13 42 57.42 -09 18 56.3   699 – Lowell Observatory-LONEOS MPS 131622
2005 04 12.32476 13 42 01.66 -09 14 09.5 18.6   704 – Lincoln Laboratory ETS, New Mexico MPS 131622
2005 04 12.34744 13 42 00.29 -09 14 02.8 18.6   704 – Lincoln Laboratory ETS, New Mexico MPS 131622
2005 04 12.35749 13 41 59.67 -09 14 00.2 18.8   704 – Lincoln Laboratory ETS, New Mexico MPS 131622
2005 04 12.36863 13 41 59.00 -09 13 56.7 18.9   704 – Lincoln Laboratory ETS, New Mexico MPS 131622
2005 04 15.29892 13 39 09.83 -08 59 30.4 18.3 R 699 – Lowell Observatory-LONEOS MPS 132562
2005 04 15.32321 13 39 08.39 -08 59 23.1   699 – Lowell Observatory-LONEOS MPS 132562
2005 04 15.34752 13 39 06.82 -08 59 16.5   699 – Lowell Observatory-LONEOS MPS 132562
2005 04 15.37183 13 39 05.39 -08 59 08.6   699 – Lowell Observatory-LONEOS MPS 132562
2005 05 04.32807 13 21 28.08 -07 31 18.4 19.1 r 568 – Maunakea MPS 133929
2005 05 04.35601 13 21 26.65 -07 31 12.1 19.2 r 568 – Maunakea MPS 133929
2005 05 04.39208 13 21 24.80 -07 31 04.0 19.2 r 568 – Maunakea MPS 133929
2005 05 06.27778 13 19 57.01 -07 24 11.8 18.4 R G96 – Mt. Lemmon Survey MPS 133286
2005 05 06.28443 13 19 56.75 -07 24 10.1 18.6 R G96 – Mt. Lemmon Survey MPS 133286
2005 05 06.29108 13 19 56.39 -07 24 08.5 18.4 R G96 – Mt. Lemmon Survey MPS 133286
2005 05 06.29772 13 19 56.06 -07 24 07.6 18.7 R G96 – Mt. Lemmon Survey MPS 133286
2005 05 23.25588 13 11 25.91 -06 50 28.1 19.4   644 – Palomar Mountain/NEAT MPS 135327
2005 05 23.27674 13 11 25.58 -06 50 27.7 19.4   644 – Palomar Mountain/NEAT MPS 135327
2005 05 23.30727 13 11 25.12 -06 50 27.3 19.4   644 – Palomar Mountain/NEAT MPS 135327
2005 06 13.15860 13 14 17.91 -07 28 42.9 20.2 V G96 – Mt. Lemmon Survey MPS 136498
2005 06 13.16683 13 14 18.16 -07 28 45.1 20.1 V G96 – Mt. Lemmon Survey MPS 136498
2005 06 13.17509 13 14 18.38 -07 28 46.7 19.9 V G96 – Mt. Lemmon Survey MPS 136498
2005 06 13.18334 13 14 18.63 -07 28 48.6 20.1 V G96 – Mt. Lemmon Survey MPS 136498
2006 09 25.44871 03 23 42.61 +17 54 14.8 20.8 V G96 – Mt. Lemmon Survey MPS 182321
2006 09 25.45545 03 23 42.54 +17 54 14.7 20.4 V G96 – Mt. Lemmon Survey MPS 182321
2006 09 25.46232 03 23 42.39 +17 54 14.0 20.8 V G96 – Mt. Lemmon Survey MPS 182321
2006 09 25.46907 03 23 42.28 +17 54 13.7 21.0 V G96 – Mt. Lemmon Survey MPS 182321
2006 10 16.42248 03 11 55.20 +17 13 51.8 20.9 V 691 – Steward Observatory, Kitt Peak-Spacewatch MPS 183799
2006 10 16.43991 03 11 54.27 +17 13 48.6 20.8 V 691 – Steward Observatory, Kitt Peak-Spacewatch MPS 183799
2006 10 16.45734 03 11 53.37 +17 13 45.3 20.8 V 691 – Steward Observatory, Kitt Peak-Spacewatch MPS 183799
2006 10 20.40102 03 08 22.96 +17 00 59.6 20.6 V 691 – Steward Observatory, Kitt Peak-Spacewatch MPS 183799
2006 10 20.41844 03 08 21.94 +17 00 56.4 20.5 V 691 – Steward Observatory, Kitt Peak-Spacewatch MPS 183799
2006 10 20.43585 03 08 20.95 +17 00 52.4 20.6 V 691 – Steward Observatory, Kitt Peak-Spacewatch MPS 183799
2006 10 27.34607 03 01 31.76 +16 35 19.9 20.4 V G96 – Mt. Lemmon Survey MPS 185123
2006 10 27.35605 03 01 31.08 +16 35 17.5 20.0 V G96 – Mt. Lemmon Survey MPS 185123
